Regional Weather Roundup
Issued by NWS

Home | Current Version | Previous Version | Graphics & Text | Print | Product List | Glossary On
Versions: 1 2 3 4 5 6 7 8 9 10 11 12 13 14 15 16 17 18 19 20 21 22 23 24 25 26 27 28 29 30 31 32 33 34 35 36 37 38 39 40 41 42 43 44 45 46 47 48 49 50
000
ASUS45 KTFX 242119
RWRMT
MONTANA HOURLY WEATHER ROUNDUP
NATIONAL WEATHER SERVICE GREAT FALLS MT
319 PM MDT THU APR 24 2014

NOTE: "FAIR" INDICATES FEW OR NO CLOUDS BELOW 12000 FEET WITH NO
SIGNIFICANT WEATHER AND/OR OBSTRUCTIONS TO VISIBILITY.

* THESE STATIONS ARE NOT UNDER NWS QUALITY CONTROL. THEY DO NOT
   REPORT WEATHER SUCH AS PRECIPITATION OR FOG.

MTZ001>007-043-242200-
WEST OF THE DIVIDE
CITY           SKY/WX    TMP DP  RH WIND       PRES   REMARKS
KALISPELL      CLOUDY    45  41  86 S15       29.80R
MISSOULA       CLOUDY    48  39  71 S10       29.85R
BUTTE          PTSUNNY   48  30  50 W13G24    29.82F
MULLAN PASS    FOG       34  34 100 VRB6      29.78R VSB 1/2  WCI  29
* ESSEX        N/A       42  37  83 S3         N/A
* LINCOLN      N/A       45  39  80 W7G12      N/A
* LOOKOUT PASS N/A       39  35  86 SE5G13     N/A   WCI  35
* PLAINS APT   CLOUDY    54  36  51 CALM      29.82F
* POLSON       N/A       44  43  96 S2G8       N/A
* SEELEY LAKE  N/A       42  39  89 SW3        N/A
* THOMP F APT  CLOUDY    34  34 100 S4G12      N/A
$$

MTZ008-052>055-242200-
SOUTHWEST MONTANA
CITY           SKY/WX    TMP DP  RH WIND       PRES   REMARKS
BOZEMAN        CLOUDY    54  30  40 SW18G28   29.82S
DILLON         CLOUDY    52  28  40 SW14G25   29.81F
W YELLOWSTONE  N/A       38  34  86 SW3G12     N/A
* THREE FORKS  PTSUNNY   52  39  61 S21G30     N/A
* BOULDER HILL N/A       45  29  54 SE7G16     N/A
* MONIDA PASS  N/A       35  32  89 SE16       N/A   WCI  25
* RAYNOLDS PAS N/A       37  16  42 SE12G17    N/A   WCI  29
* WHITEHALL    N/A       54  33  45 SW17G29    N/A
* WISE RIVER   N/A       44  36  74 NW4G12     N/A
$$

MTZ009>010-012-014-046-048-049-054-242200-
EAST SLOPES AND CENTRAL MONTANA
CITY           SKY/WX    TMP DP  RH WIND       PRES   REMARKS
CUT BANK       CLOUDY    55  28  35 W15G22    29.69S
GREAT FALLS    CLOUDY    55  34  45 SW24G30   29.70F
HELENA         PTSUNNY   57  34  42 W10G26    29.76F
MALMSTROM AFB  CLOUDY    57  32  39 SW21G33   29.68F
* CONRAD       CLOUDY    55  30  39 N/A        N/A
* DEARBORN     N/A       53  33  47 S11G24     N/A
* EAST GLACIER N/A       42  33  71 W19G26     N/A
* MONARCH      N/A       44  24  45 SW19G26    N/A
* PENDROY      N/A       51  28  41 NW16G24    N/A
* ROGERS PASS  N/A       39  34  82 E9G17      N/A   WCI  33
* SAINT MARY   N/A       46  32  58 S10G20     N/A
* SWEET GRASS  N/A       50  29  44 W19G26     N/A
* WHITE SULPH  N/A       44  34  68 S16G22     N/A
$$

MTZ011-013-016-021-035-040-045-047-050-051-242200-
NORTH CENTRAL MONTANA
CITY           SKY/WX    TMP DP  RH WIND       PRES   REMARKS
HAVRE          CLOUDY    55  28  35 W8        29.70F
LEWISTOWN      CLOUDY    48  30  50 NW9       29.76S
* CHINOOK      PTSUNNY   55  28  35 W12       29.70F
* FORT BENTON  CLOUDY    57  30  36 SW13G18   29.71F
* CHESTER      N/A       53  28  38 SW10G18    N/A
* DENTON       N/A       52  26  36 NW2G8      N/A
* GEYSER       N/A       54  28  37 SW22G31    N/A
* JUDITH GAP   N/A       49  27  43 SW22G28    N/A
* LOMA         N/A       57  29  34 SW9G16     N/A
$$

MTZ017>020-022>027-061-062-242200-
NORTHEAST MONTANA
CITY           SKY/WX    TMP DP  RH WIND       PRES   REMARKS
GLASGOW        SUNNY     61  21  21 W16G28    29.71F
GLENDIVE       PTCLDY    61  25  25 W21G26    29.74F
JORDAN         PTCLDY    59  25  27 NW12G24   29.72F
SIDNEY         PTSUNNY   57  27  32 N14G22    29.74F
WOLF POINT     CLOUDY    61  25  25 W10       29.72F
* BEAVER HILL  N/A       56  25  30 NW16G26    N/A
* CIRCLE       N/A       58  28  32 W16        N/A
* LINDSAY DVD  N/A       56  20  24 NW14G21    N/A
* NAVAJO       N/A       52  28  40 NW17       N/A
* SACO         N/A       59  17  19 SW12G21    N/A
$$

MTZ028>042-056>058-242200-
SOUTHCENTRAL AND SOUTHEAST MONTANA
CITY           SKY/WX    TMP DP  RH WIND       PRES   REMARKS
BAKER          SUNNY     59  16  18 NW22G35   29.76F
BILLINGS       CLOUDY    59  27  29 W20       29.76S
LIVINGSTON     CLOUDY    52  28  40 SW32G47   29.79S
MILES CITY     PTSUNNY   59  25  27 NW13G23   29.75F
* LAUREL APT   CLOUDY    59  27  29 SW11G23    N/A
* ROUNDUP APT  CLOUDY    55  23  29 SW15G20    N/A
* HYSHAM       N/A       57  25  29 NW7G14     N/A
* REED POINT   N/A       56  31  39 W18G29     N/A
* ROSCOE HILL  N/A       48  17  29 S18G33     N/A
$$

REGIONAL REPORTS...DAKOTAS
CITY           SKY/WX    TMP DP  RH WIND       PRES   REMARKS
WILLISTON      PTSUNNY   59  28  31 NW15G20   29.71F
DICKINSON      PTSUNNY   57  19  23 W16G31    29.71S
CROSBY         N/A       54  30  40 N/A        N/A
TIOGA          SUNNY     57  21  25 W18G24    29.72F
WATFORD CITY   PTSUNNY   54  32  43 N15G20    29.70S
BISMARCK       PTSUNNY   63  18  17 NW14G24   29.69S
GRAND FORKS    FOG       45  39  80 SE5       29.69F
FARGO          CLOUDY    48  43  83 VRB6      29.69F
BUFFALO SD     PTCLDY    61  21  21 W26G44    29.72S
RAPID CITY     PTCLDY    63  25  24 CALM      29.78F
$$

REGIONAL REPORTS...WYOMING/IDAHO/WASHINGTON
CITY           SKY/WX    TMP DP  RH WIND       PRES   REMARKS
GILLETTE       PTCLDY    59  18  20 CALM      29.78F
SHERIDAN       PTSUNNY   59  23  25 CALM      29.77F
CODY           CLOUDY    55  27  34 W13G20    29.80S
YELLOWSTONE LA CLOUDY    36  28  73 VRB7      29.95S WCI  30
SALMON         CLOUDY    55  34  45 S14       29.81F
MULLAN PASS    FOG       34  34 100 VRB6      29.78S VSB 1/2  WCI  29
SAND POINT     RAIN      43  43 100 N7        29.78S
SPOKANE        PTSUNNY   54  39  57 SW24G35   29.75R
$$

REGIONAL REPORTS...ALBERTA
CITY           SKY/WX    TMP DP  RH WIND       PRES   REMARKS
CALGARY        PTSUNNY   52  14  22 VRB6      29.63F
LETHBRIDGE     PTSUNNY   55  27  34 S9G23     29.65F
MEDICINE HAT   PTCLDY    57  23  27 NW9       29.67F
EDMONTON       PTSUNNY   45  30  56 N12       29.70S
WATERTON GATE  N/A       46  30  54 SW16G25    N/A
CARDSTON       N/A       52  30  43 W8G18      N/A
MILK RIVER     N/A       54  27  35 W14        N/A
$$

REGIONAL REPORTS...SASKATCHEWAN
CITY           SKY/WX    TMP DP  RH WIND       PRES   REMARKS
SWIFT CURRENT  PTSUNNY   55  25  31 NW23G30   29.64S
MOOSE JAW      PTSUNNY   54  36  51 NW18G24   29.66R
REGINA         PTSUNNY   52  37  57 NW15G26   29.66F
VAL MARIE      N/A       59  18  20 W12G18     N/A
ASSINIBOIA     N/A       54  25  33 NW21G28    N/A
CORONACH       N/A       59  25  27 W14G23     N/A

$$




USA.gov is the U.S. government's official web portal to all federal, state and local government web resources and services.